Seneca, SC

10:20 PM EST on February 21, 2017 (GMT -0500)
Oconee County Regional

Weather History for KCEU - August, 2014

Change the Weather History Date:

Sunday, August 10, 2014

  Actual Average Record
Temperature  
Mean Temperature 72 °F -  
Max Temperature 75 °F 89 °F 103 °F (1980)
Min Temperature 69 °F 67 °F 58 °F (1953)
Cooling Degree Days 7    
Growing Degree Days 22 (Base 50)    
Moisture  
Dew Point 67 °F    
Average Humidity 82    
Maximum Humidity 91    
Minimum Humidity 76    
Precipitation  
Precipitation 3.17 in - - ()
Sea Level Pressure  
Sea Level Pressure 30.06 in    
Wind  
Wind Speed 7 mph (ENE)    
Max Wind Speed 13 mph    
Max Gust Speed 20 mph    
Visibility 8 miles    
Events Fog , Rain , Thunderstorm    
Averages and records for this station are not official NWS values.
T = Trace of Precipitation, MM = Missing Value Source: NWS Daily Summary

Daily Weather History Graph

Daily Weather History Graph

Search for Another Location

Airport or City:

Trip Planner

Search our weather history database for the weather conditions in past years. The results will help you decide how hot, cold, wet, or windy it might be!

Date:

Astronomy

Aug. 10, 2014 Rise Set
Actual Time 6:48 AM EDT 8:24 PM EDT
Civil Twilight 6:21 AM EDT 8:51 PM EDT
Nautical Twilight 5:48 AM EDT 9:24 PM EDT
Astronomical Twilight 5:14 AM EDT 9:58 PM EDT
Moon 8:14 PM EDT (8/10) 6:37 AM EDT (8/10)
Length of Visible Light 14h 30m
Length of Day
13h 36m
Full, 100% of the Moon is Illuminated
Aug 10
Full
Aug 10
Full
Aug 17
Last Quarter
Aug 25
New
Sep 2
First Quarter

Hourly Weather History & Observations

Time (EDT) Temp. Dew Point Humidity Pressure Visibility Wind Dir Wind Speed Gust Speed Precip Events Conditions
12:25 AM 75.0 °F 71.1 °F 87% 30.03 in 5.0 mi ENE 9.2 mph - 0.13 in Rain Rain
12:40 AM 73.9 °F 70.0 °F 87% 30.06 in 1.8 mi Variable 5.8 mph - 0.41 in Rain Heavy Rain
12:44 AM 73.0 °F 69.1 °F 87% 30.06 in 0.8 mi ENE 12.7 mph 18.4 mph 0.78 in Rain , Thunderstorm Heavy Thunderstorms and Rain
12:54 AM 73.0 °F 69.1 °F 87% 30.04 in 0.5 mi North 10.4 mph 19.6 mph 1.50 in Fog , Rain , Thunderstorm Heavy Thunderstorms and Rain
1:18 AM 72.0 °F 69.1 °F 91% 30.08 in 1.5 mi East 5.8 mph - 1.10 in Rain , Thunderstorm Heavy Rain
1:25 AM 72.0 °F 69.1 °F 91% 30.07 in 1.8 mi NE 6.9 mph - 1.21 in Rain , Thunderstorm Heavy Rain
1:46 AM 72.0 °F 68.0 °F 87% 30.07 in 2.0 mi NNE 11.5 mph - 1.50 in Rain Heavy Rain
1:54 AM 72.0 °F 68.0 °F 87% 30.04 in 2.5 mi ENE 9.2 mph - 1.56 in Rain Heavy Rain
2:02 AM 71.1 °F 68.0 °F 90% 30.06 in 5.0 mi ENE 5.8 mph - 0.02 in Rain Rain
2:10 AM 71.1 °F 68.0 °F 90% 30.05 in 5.0 mi NE 12.7 mph - 0.05 in Rain Heavy Rain
2:54 AM 71.1 °F 66.9 °F 87% 30.01 in 10.0 mi ENE 11.5 mph - 0.11 in Rain Light Rain
3:54 AM 71.1 °F 66.9 °F 87% 29.99 in 10.0 mi NE 4.6 mph - 0.00 in   Overcast
5:54 AM 71.1 °F 66.0 °F 84% 30.01 in 10.0 mi ENE 6.9 mph - N/A   Overcast
7:17 AM 69.1 °F 64.9 °F 87% 30.08 in 9.0 mi East 8.1 mph - N/A   Overcast
8:54 AM 69.1 °F 64.0 °F 84% 30.07 in 10.0 mi ENE 8.1 mph - N/A   Overcast
9:54 AM 70.0 °F 64.9 °F 84% 30.09 in 10.0 mi East 5.8 mph - N/A   Overcast
10:54 AM 71.1 °F 64.9 °F 81% 30.09 in 10.0 mi East 6.9 mph - N/A   Overcast
11:54 AM 71.1 °F 64.9 °F 81% 30.09 in 10.0 mi East 4.6 mph - N/A   Overcast
12:54 PM 72.0 °F 64.9 °F 78% 30.09 in 10.0 mi NE 5.8 mph - N/A   Overcast
1:44 PM 73.0 °F 66.0 °F 79% 30.11 in 10.0 mi NE 4.6 mph - N/A   Overcast
1:54 PM 73.0 °F 66.0 °F 79% 30.08 in 10.0 mi NE 5.8 mph - N/A   Overcast
2:14 PM 73.0 °F 66.0 °F 79% 30.09 in 10.0 mi Calm Calm - N/A   Overcast
2:45 PM 73.9 °F 66.0 °F 76% 30.09 in 10.0 mi NE 3.5 mph - N/A   Overcast
2:54 PM 73.9 °F 66.0 °F 76% 30.06 in 10.0 mi NE 4.6 mph - N/A   Overcast
3:54 PM 73.9 °F 66.9 °F 79% 30.05 in 10.0 mi North 4.6 mph - N/A   Overcast
4:54 PM 75.0 °F 66.9 °F 76% 30.04 in 10.0 mi East 6.9 mph - N/A   Overcast
5:54 PM 73.9 °F 66.9 °F 79% 30.04 in 10.0 mi ENE 4.6 mph - N/A   Overcast
6:54 PM 73.9 °F 66.0 °F 76% 30.02 in 10.0 mi East 5.8 mph - N/A   Overcast
7:54 PM 73.0 °F 66.0 °F 79% 30.02 in 10.0 mi East 6.9 mph - N/A   Overcast
8:06 PM 73.0 °F 66.0 °F 79% 30.05 in 10.0 mi East 4.6 mph - N/A   Overcast
8:54 PM 73.0 °F 66.0 °F 79% 30.05 in 10.0 mi East 5.8 mph - N/A   Overcast
9:38 PM 73.0 °F 66.0 °F 79% 30.07 in 10.0 mi East 3.5 mph - N/A   Overcast
9:54 PM 73.0 °F 66.0 °F 79% 30.06 in 10.0 mi East 5.8 mph - N/A   Overcast
10:14 PM 73.0 °F 66.0 °F 79% 30.09 in 10.0 mi ENE 3.5 mph - N/A   Overcast
10:54 PM 73.0 °F 66.0 °F 79% 30.06 in 10.0 mi East 3.5 mph - N/A   Overcast
11:01 PM 73.0 °F 66.0 °F 79% 30.09 in 10.0 mi ENE 4.6 mph - N/A   Overcast
11:24 PM 73.0 °F 66.0 °F 79% 30.09 in 10.0 mi East 3.5 mph - N/A   Overcast
11:54 PM 73.0 °F 66.0 °F 79% 30.07 in 10.0 mi NE 5.8 mph - N/A   Overcast